Regional Weather Roundup
Issued by NWS

Home | Current Version | Previous Version | Graphics & Text | Print | Product List | Glossary On
Versions: 1 2 3 4 5 6 7 8 9 10 11 12 13 14 15 16 17 18 19 20 21 22 23 24 25 26 27 28 29 30 31 32 33 34 35 36 37 38 39 40 41 42 43 44 45 46 47 48 49 50
000
ASUS44 KMEG 212200
RWRTN
TENNESSEE HOURLY STATE WEATHER ROUNDUP
NATIONAL WEATHER SERVICE MEMPHIS TN
500 PM CDT MON JUL 21 2014

TNZ002-004-019-021-049-052-054-088>092-212300-
WEST TENNESSEE

CITY           SKY/WX    TMP DP  RH WIND       PRES   REMARKS
MEMPHIS INTL   MOSUNNY   86  65  49 NE9       30.04S
NWS MEMPHIS      N/A     84 N/A N/A MISG        N/A
JACKSON        MOSUNNY   85  67  54 CALM      30.04S
DYERSBURG      MOSUNNY   84  63  48 NW3       30.05S
PARIS          MOSUNNY   84  64  51 CALM      30.06S
$$

TNZ008-025-027-028-033-062-065-066-212300-
NORTH MIDDLE TENNESSEE

CITY           SKY/WX    TMP DP  RH WIND       PRES   REMARKS
NASHVILLE      PTSUNNY   86  72  62 SE8       30.04F HX  92
CLARKSVILLE    MOSUNNY   89  62  40 CALM      30.04R
COOKEVILLE     MOSUNNY   82  73  74 CALM      30.07S
CROSSVILLE     MOSUNNY   81  67  62 E3        30.12F
$$

TNZ061-075-076-078-094-096-097-212300-
SOUTH MIDDLE TENNESSEE

CITY           SKY/WX    TMP DP  RH WIND       PRES   REMARKS
WINCHESTER     PTSUNNY   82  72  69 SE7       30.06S
SHELBYVILLE    SUNNY     84  73  70 CALM      30.05F HX  91
$$

TNZ017-018-042-046-047-212300-
NORTHEAST TENNESSEE

CITY           SKY/WX    TMP DP  RH WIND       PRES   REMARKS
TRI CITIES     CLOUDY    80  67  64 VRB5      30.11S
ELIZABETHTON   CLEAR     75  66  73 E3        30.13S
$$

TNZ012-013-036-069-073-074-212300-
CENTRAL EAST TENNESSEE

CITY           SKY/WX    TMP DP  RH WIND       PRES   REMARKS
KNOXVILLE      CLOUDY    85  70  60 E5        30.05S
OAK RIDGE      MOSUNNY   87  69  54 E5        30.07S HX  91
$$

TNZ083-085-099-212300-
SOUTHEAST TENNESSEE

CITY           SKY/WX    TMP DP  RH WIND       PRES   REMARKS
CHATTANOOGA    PTSUNNY   83  69  62 CALM      30.05S
$$

SKY/WX REPORTED AS FAIR MEANS FEW OR NO CLOUDS BELOW
12 THOUSAND FEET.



USA.gov is the U.S. government's official web portal to all federal, state and local government web resources and services.